Time,TemperatureF,DewpointF,PressureIn,WindDirection,WindDirectionDegrees,WindSpeedMPH,WindSpeedGustMPH,Humidity,HourlyPrecipIn,Conditions,Clouds,dailyrainin,SoftwareType,DateUTC
2013-04-13 00:00:00,36.7,35.1,29.81,NNE,30,1.0,9.0,94,0.00,,,0.32,meteohub,2013-04-13 04:00:00,
2013-04-13 00:05:00,36.7,35.1,29.82,North,11,7.0,10.0,94,0.00,,,0.00,meteohub,2013-04-13 04:05:00,
2013-04-13 00:10:00,36.7,34.9,29.83,NNE,14,8.0,10.0,93,0.00,,,0.00,meteohub,2013-04-13 04:10:00,
2013-04-13 00:15:00,36.7,34.9,29.83,North,355,2.0,10.0,93,0.00,,,0.00,meteohub,2013-04-13 04:15:00,
2013-04-13 00:20:00,36.7,34.9,29.83,NNE,24,1.0,10.0,93,0.00,,,0.00,meteohub,2013-04-13 04:20:00,
2013-04-13 00:25:00,36.7,34.9,29.84,NNW,339,3.0,10.0,93,0.00,,,0.00,meteohub,2013-04-13 04:25:00,
2013-04-13 00:30:00,36.7,34.9,29.84,NE,48,4.0,8.0,93,0.01,,,0.01,meteohub,2013-04-13 04:30:00,
2013-04-13 00:35:00,36.7,34.9,29.84,NE,36,6.0,9.0,93,0.01,,,0.01,meteohub,2013-04-13 04:35:00,
2013-04-13 00:40:00,36.7,34.9,29.84,WNW,302,3.0,10.0,93,0.01,,,0.01,meteohub,2013-04-13 04:40:00,
2013-04-13 00:45:00,36.5,34.7,29.84,ENE,57,2.0,10.0,93,0.02,,,0.02,meteohub,2013-04-13 04:45:00,
2013-04-13 00:50:00,36.5,34.7,29.84,NNE,24,3.0,10.0,93,0.03,,,0.03,meteohub,2013-04-13 04:50:00,
2013-04-13 00:55:00,36.5,34.7,29.85,NNW,340,1.0,8.0,93,0.04,,,0.04,meteohub,2013-04-13 04:55:00,
2013-04-13 01:01:00,36.5,34.7,29.84,NE,44,4.0,8.0,93,0.04,,,0.04,meteohub,2013-04-13 05:01:00,
2013-04-13 01:06:00,36.3,34.5,29.84,NNE,22,4.0,8.0,93,0.04,,,0.04,meteohub,2013-04-13 05:06:00,
2013-04-13 01:11:00,36.3,34.5,29.83,NE,39,1.0,9.0,93,0.04,,,0.04,meteohub,2013-04-13 05:11:00,
2013-04-13 01:16:00,36.3,34.5,29.83,NNW,330,1.0,9.0,93,0.04,,,0.04,meteohub,2013-04-13 05:16:00,
2013-04-13 01:21:00,36.3,34.5,29.85,WNW,302,1.0,10.0,93,0.04,,,0.04,meteohub,2013-04-13 05:21:00,
2013-04-13 01:26:00,36.3,34.5,29.84,NE,49,5.0,10.0,93,0.03,,,0.04,meteohub,2013-04-13 05:26:00,
2013-04-13 01:31:00,36.3,34.5,29.81,East,84,5.0,9.0,93,0.04,,,0.05,meteohub,2013-04-13 05:31:00,
2013-04-13 01:37:00,36.1,34.3,29.80,North,5,4.0,9.0,93,0.04,,,0.05,meteohub,2013-04-13 05:37:00,
2013-04-13 01:42:00,36.1,34.3,29.81,North,0,3.0,9.0,93,0.05,,,0.07,meteohub,2013-04-13 05:42:00,
2013-04-13 01:47:00,36.1,34.3,29.80,NNE,19,4.0,8.0,93,0.05,,,0.07,meteohub,2013-04-13 05:47:00,
2013-04-13 01:52:00,36.0,34.2,29.79,North,5,5.0,9.0,93,0.05,,,0.08,meteohub,2013-04-13 05:52:00,
2013-04-13 01:57:00,36.0,34.2,29.81,North,0,7.0,10.0,93,0.05,,,0.09,meteohub,2013-04-13 05:57:00,
2013-04-13 02:02:00,36.0,34.2,29.81,NW,304,1.0,11.0,93,0.05,,,0.09,meteohub,2013-04-13 06:02:00,
2013-04-13 02:07:00,36.0,34.2,29.82,North,9,1.0,11.0,93,0.05,,,0.09,meteohub,2013-04-13 06:07:00,
2013-04-13 02:12:00,36.0,34.2,29.80,NNE,33,7.0,11.0,93,0.05,,,0.09,meteohub,2013-04-13 06:12:00,
2013-04-13 02:17:00,36.0,34.2,29.82,North,11,2.0,7.0,93,0.05,,,0.09,meteohub,2013-04-13 06:17:00,
2013-04-13 02:22:00,36.0,34.2,29.82,North,5,2.0,7.0,93,0.05,,,0.09,meteohub,2013-04-13 06:22:00,
2013-04-13 02:27:00,36.0,34.2,29.82,NW,323,1.0,7.0,93,0.04,,,0.09,meteohub,2013-04-13 06:27:00,
2013-04-13 02:32:00,36.0,34.2,29.81,NNE,29,3.0,5.0,93,0.04,,,0.09,meteohub,2013-04-13 06:32:00,
2013-04-13 02:37:00,36.0,34.2,29.81,NNE,15,7.0,7.0,93,0.03,,,0.09,meteohub,2013-04-13 06:37:00,
2013-04-13 02:42:00,36.0,34.2,29.81,North,355,0.0,12.0,93,0.02,,,0.09,meteohub,2013-04-13 06:42:00,
2013-04-13 02:49:00,36.0,34.2,29.81,North,355,2.0,12.0,93,0.01,,,0.09,meteohub,2013-04-13 06:49:00,
2013-04-13 02:54:00,36.0,33.8,29.81,North,350,4.0,12.0,92,0.00,,,0.09,meteohub,2013-04-13 06:54:00,
2013-04-13 02:59:00,36.0,33.8,29.82,NNE,22,4.0,7.0,92,0.00,,,0.09,meteohub,2013-04-13 06:59:00,
2013-04-13 03:04:00,36.1,34.0,29.82,North,350,6.0,7.0,92,0.00,,,0.09,meteohub,2013-04-13 07:04:00,
2013-04-13 03:09:00,36.1,34.0,29.82,NNE,14,0.0,8.0,92,0.00,,,0.09,meteohub,2013-04-13 07:09:00,
2013-04-13 03:14:00,36.1,34.0,29.82,North,355,5.0,8.0,92,0.00,,,0.09,meteohub,2013-04-13 07:14:00,
2013-04-13 03:19:00,36.1,34.0,29.82,NNE,28,0.0,8.0,92,0.00,,,0.09,meteohub,2013-04-13 07:19:00,
2013-04-13 03:25:00,36.1,34.0,29.83,NNW,348,1.0,6.0,92,0.00,,,0.09,meteohub,2013-04-13 07:25:00,
2013-04-13 03:30:00,36.1,34.0,29.83,North,5,2.0,7.0,92,0.00,,,0.09,meteohub,2013-04-13 07:30:00,
2013-04-13 03:35:00,36.3,34.0,29.83,NNE,12,1.0,7.0,91,0.00,,,0.09,meteohub,2013-04-13 07:35:00,
2013-04-13 03:40:00,36.3,34.2,29.83,North,9,3.0,7.0,92,0.00,,,0.09,meteohub,2013-04-13 07:40:00,
2013-04-13 03:45:00,36.3,34.2,29.83,North,355,3.0,7.0,92,0.00,,,0.09,meteohub,2013-04-13 07:45:00,
2013-04-13 03:50:00,36.3,34.0,29.83,North,10,2.0,7.0,91,0.00,,,0.09,meteohub,2013-04-13 07:50:00,
2013-04-13 03:55:00,36.3,34.0,29.83,NW,325,1.0,7.0,91,0.00,,,0.09,meteohub,2013-04-13 07:55:00,
2013-04-13 04:00:00,36.3,34.0,29.83,NNE,19,0.0,6.0,91,0.00,,,0.09,meteohub,2013-04-13 08:00:00,
2013-04-13 04:05:00,36.3,34.0,29.84,North,10,1.0,4.0,91,0.00,,,0.09,meteohub,2013-04-13 08:05:00,
2013-04-13 04:10:00,36.5,34.2,29.84,North,0,0.0,6.0,91,0.00,,,0.09,meteohub,2013-04-13 08:10:00,
2013-04-13 04:16:00,36.7,34.3,29.84,NNW,346,0.0,6.0,91,0.00,,,0.09,meteohub,2013-04-13 08:16:00,
2013-04-13 04:21:00,36.7,34.3,29.85,NNW,329,0.0,6.0,91,0.00,,,0.09,meteohub,2013-04-13 08:21:00,
2013-04-13 04:27:00,36.7,34.3,29.84,NNE,23,4.0,6.0,91,0.00,,,0.09,meteohub,2013-04-13 08:27:00,
2013-04-13 04:32:00,36.7,34.0,29.84,NE,34,2.0,5.0,90,0.00,,,0.09,meteohub,2013-04-13 08:32:00,
2013-04-13 04:37:00,36.7,34.3,29.84,NE,34,0.0,5.0,91,0.00,,,0.09,meteohub,2013-04-13 08:37:00,
2013-04-13 04:42:00,36.7,34.0,29.85,NE,52,1.0,5.0,90,0.00,,,0.09,meteohub,2013-04-13 08:42:00,
2013-04-13 04:47:00,36.9,34.2,29.85,NNE,22,3.0,5.0,90,0.00,,,0.09,meteohub,2013-04-13 08:47:00,
2013-04-13 04:52:00,36.9,34.2,29.85,NNE,26,0.0,5.0,90,0.00,,,0.09,meteohub,2013-04-13 08:52:00,
2013-04-13 04:57:00,36.9,34.2,29.86,North,11,2.0,4.0,90,0.00,,,0.09,meteohub,2013-04-13 08:57:00,
2013-04-13 05:02:00,36.9,34.2,29.86,North,11,0.0,4.0,90,0.00,,,0.09,meteohub,2013-04-13 09:02:00,
2013-04-13 05:08:00,36.9,34.2,29.86,NNE,17,0.0,3.0,90,0.00,,,0.09,meteohub,2013-04-13 09:08:00,
2013-04-13 05:13:00,36.9,34.5,29.86,NNE,17,0.0,3.0,91,0.00,,,0.09,meteohub,2013-04-13 09:13:00,
2013-04-13 05:18:00,36.9,34.5,29.86,NNE,17,0.0,3.0,91,0.00,,,0.09,meteohub,2013-04-13 09:18:00,
2013-04-13 05:23:00,36.9,34.5,29.86,NNE,17,0.0,3.0,91,0.00,,,0.09,meteohub,2013-04-13 09:23:00,
2013-04-13 05:28:00,36.9,34.5,29.86,NNE,16,0.0,3.0,91,0.00,,,0.09,meteohub,2013-04-13 09:28:00,
2013-04-13 05:33:00,36.7,34.3,29.86,NNE,16,0.0,2.0,91,0.00,,,0.09,meteohub,2013-04-13 09:33:00,
2013-04-13 05:38:00,36.9,34.5,29.86,NNE,16,0.0,2.0,91,0.00,,,0.09,meteohub,2013-04-13 09:38:00,
2013-04-13 05:43:00,36.7,34.0,29.86,North,355,0.0,2.0,90,0.00,,,0.09,meteohub,2013-04-13 09:43:00,
2013-04-13 05:48:00,36.7,34.0,29.86,North,355,0.0,4.0,90,0.00,,,0.09,meteohub,2013-04-13 09:48:00,
2013-04-13 05:54:00,36.7,34.0,29.86,North,9,0.0,4.0,90,0.00,,,0.09,meteohub,2013-04-13 09:54:00,
2013-04-13 05:59:00,36.9,34.2,29.86,NE,40,2.0,3.0,90,0.00,,,0.09,meteohub,2013-04-13 09:59:00,
2013-04-13 06:04:00,36.9,34.0,29.86,NNE,15,2.0,3.0,89,0.00,,,0.09,meteohub,2013-04-13 10:04:00,
2013-04-13 06:09:00,36.9,34.0,29.85,North,11,2.0,3.0,89,0.00,,,0.09,meteohub,2013-04-13 10:09:00,
2013-04-13 06:14:00,36.7,33.8,29.86,North,355,0.0,3.0,89,0.00,,,0.09,meteohub,2013-04-13 10:14:00,
2013-04-13 06:19:00,36.7,33.8,29.86,North,9,3.0,3.0,89,0.00,,,0.09,meteohub,2013-04-13 10:19:00,
2013-04-13 06:24:00,36.7,33.8,29.86,North,9,0.0,5.0,89,0.00,,,0.09,meteohub,2013-04-13 10:24:00,
2013-04-13 06:30:00,36.7,33.8,29.86,North,9,0.0,5.0,89,0.00,,,0.09,meteohub,2013-04-13 10:30:00,
2013-04-13 06:35:00,36.7,33.8,29.86,North,9,0.0,5.0,89,0.00,,,0.09,meteohub,2013-04-13 10:35:00,
2013-04-13 06:40:00,36.7,34.0,29.86,NE,49,1.0,2.0,90,0.00,,,0.09,meteohub,2013-04-13 10:40:00,
2013-04-13 06:45:00,36.7,34.0,29.86,NE,40,0.0,4.0,90,0.00,,,0.09,meteohub,2013-04-13 10:45:00,
2013-04-13 06:51:00,36.7,34.0,29.86,NE,40,0.0,4.0,90,0.00,,,0.09,meteohub,2013-04-13 10:51:00,
2013-04-13 06:56:00,36.7,34.0,29.86,NE,40,1.0,2.0,90,0.00,,,0.09,meteohub,2013-04-13 10:56:00,
2013-04-13 07:01:00,36.9,34.2,29.87,NE,40,0.0,1.0,90,0.00,,,0.09,meteohub,2013-04-13 11:01:00,
2013-04-13 07:06:00,36.9,34.2,29.87,NE,40,0.0,1.0,90,0.00,,,0.09,meteohub,2013-04-13 11:06:00,
2013-04-13 07:11:00,37.0,34.2,29.87,NNE,27,1.0,2.0,89,0.00,,,0.09,meteohub,2013-04-13 11:11:00,
2013-04-13 07:17:00,37.0,34.3,29.87,NE,36,0.0,5.0,90,0.00,,,0.09,meteohub,2013-04-13 11:17:00,
2013-04-13 07:22:00,37.2,34.3,29.87,NNE,23,0.0,5.0,89,0.00,,,0.09,meteohub,2013-04-13 11:22:00,
2013-04-13 07:27:00,37.6,34.9,29.87,NNE,24,1.0,5.0,90,0.00,,,0.09,meteohub,2013-04-13 11:27:00,
2013-04-13 07:32:00,37.8,35.1,29.88,NNE,16,0.0,4.0,90,0.00,,,0.09,meteohub,2013-04-13 11:32:00,
2013-04-13 07:38:00,37.9,35.1,29.88,NNE,31,2.0,2.0,89,0.00,,,0.09,meteohub,2013-04-13 11:38:00,
2013-04-13 07:43:00,37.9,34.7,29.88,NNW,342,1.0,4.0,88,0.00,,,0.09,meteohub,2013-04-13 11:43:00,
2013-04-13 07:48:00,37.9,34.7,29.88,NNE,19,1.0,5.0,88,0.00,,,0.09,meteohub,2013-04-13 11:48:00,
2013-04-13 07:54:00,38.1,34.9,29.88,North,0,0.0,5.0,88,0.00,,,0.09,meteohub,2013-04-13 11:54:00,
2013-04-13 07:59:00,38.3,35.1,29.89,NE,42,1.0,5.0,88,0.00,,,0.09,meteohub,2013-04-13 11:59:00,
2013-04-13 08:05:00,38.5,35.6,29.88,North,350,2.0,5.0,89,0.00,,,0.09,meteohub,2013-04-13 12:05:00,
2013-04-13 08:10:00,38.8,35.2,29.89,NNE,19,0.0,5.0,87,0.00,,,0.09,meteohub,2013-04-13 12:10:00,
2013-04-13 08:15:00,38.8,35.1,29.89,NNE,33,3.0,5.0,86,0.00,,,0.09,meteohub,2013-04-13 12:15:00,
2013-04-13 08:20:00,38.7,34.5,29.89,NE,49,1.0,7.0,85,0.00,,,0.09,meteohub,2013-04-13 12:20:00,
2013-04-13 08:25:00,38.8,34.7,29.89,NE,53,3.0,7.0,85,0.00,,,0.09,meteohub,2013-04-13 12:25:00,
2013-04-13 08:30:00,38.8,35.2,29.89,NNW,333,0.0,7.0,87,0.00,,,0.09,meteohub,2013-04-13 12:30:00,
2013-04-13 08:35:00,39.2,35.6,29.89,North,0,0.0,4.0,87,0.00,,,0.09,meteohub,2013-04-13 12:35:00,
2013-04-13 08:40:00,39.4,35.6,29.89,NE,36,0.0,5.0,86,0.00,,,0.09,meteohub,2013-04-13 12:40:00,
2013-04-13 08:45:00,39.6,35.4,29.88,NE,35,1.0,5.0,85,0.00,,,0.09,meteohub,2013-04-13 12:45:00,
2013-04-13 08:50:00,39.9,36.1,29.89,NE,46,2.0,5.0,86,0.00,,,0.09,meteohub,2013-04-13 12:50:00,
2013-04-13 08:55:00,40.1,35.6,29.89,NE,51,0.0,4.0,84,0.00,,,0.09,meteohub,2013-04-13 12:55:00,
2013-04-13 09:00:00,40.5,36.0,29.89,NNW,348,1.0,6.0,84,0.00,,,0.09,meteohub,2013-04-13 13:00:00,
2013-04-13 09:06:00,40.6,36.0,29.89,NE,45,1.0,6.0,83,0.00,,,0.09,meteohub,2013-04-13 13:06:00,
2013-04-13 09:11:00,40.8,36.1,29.89,NNE,24,0.0,6.0,83,0.00,,,0.09,meteohub,2013-04-13 13:11:00,
2013-04-13 09:17:00,41.2,36.7,29.89,NNW,338,4.0,5.0,84,0.00,,,0.09,meteohub,2013-04-13 13:17:00,
2013-04-13 09:22:00,41.2,36.5,29.89,NE,39,2.0,5.0,83,0.00,,,0.09,meteohub,2013-04-13 13:22:00,
2013-04-13 09:27:00,41.4,36.3,29.90,North,0,0.0,5.0,82,0.00,,,0.09,meteohub,2013-04-13 13:27:00,
2013-04-13 09:32:00,41.5,36.5,29.90,NNE,25,1.0,5.0,82,0.00,,,0.09,meteohub,2013-04-13 13:32:00,
2013-04-13 09:37:00,41.7,36.7,29.89,NNE,16,0.0,4.0,82,0.00,,,0.09,meteohub,2013-04-13 13:37:00,
2013-04-13 09:42:00,42.1,37.2,29.89,SW,222,0.0,3.0,83,0.00,,,0.09,meteohub,2013-04-13 13:42:00,
2013-04-13 09:47:00,42.4,37.9,29.89,NNW,348,2.0,4.0,84,0.00,,,0.09,meteohub,2013-04-13 13:47:00,
2013-04-13 09:52:00,42.8,37.4,29.90,North,5,0.0,4.0,81,0.00,,,0.09,meteohub,2013-04-13 13:52:00,
2013-04-13 09:57:00,43.0,37.6,29.90,West,262,0.0,4.0,81,0.00,,,0.09,meteohub,2013-04-13 13:57:00,
2013-04-13 10:02:00,43.3,37.6,29.90,West,262,0.0,4.0,80,0.00,,,0.09,meteohub,2013-04-13 14:02:00,
2013-04-13 10:07:00,43.7,37.6,29.89,SW,235,0.0,3.0,79,0.00,,,0.09,meteohub,2013-04-13 14:07:00,
2013-04-13 10:13:00,44.1,37.9,29.90,North,5,2.0,4.0,79,0.00,,,0.09,meteohub,2013-04-13 14:13:00,
2013-04-13 10:18:00,44.1,37.4,29.90,West,276,0.0,4.0,77,0.00,,,0.09,meteohub,2013-04-13 14:18:00,
2013-04-13 10:23:00,44.2,38.1,29.90,NNE,18,4.0,4.0,79,0.00,,,0.09,meteohub,2013-04-13 14:23:00,
2013-04-13 10:28:00,44.2,37.8,29.90,NNE,28,1.0,4.0,78,0.00,,,0.09,meteohub,2013-04-13 14:28:00,
2013-04-13 10:35:00,44.2,37.8,29.91,North,355,0.0,4.0,78,0.00,,,0.09,meteohub,2013-04-13 14:35:00,
2013-04-13 10:40:00,44.4,37.6,29.91,NE,44,0.0,4.0,77,0.00,,,0.09,meteohub,2013-04-13 14:40:00,
2013-04-13 10:45:00,44.8,38.3,29.91,North,355,0.0,4.0,78,0.00,,,0.09,meteohub,2013-04-13 14:45:00,
2013-04-13 10:50:00,45.1,38.3,29.91,NNE,22,0.0,4.0,77,0.00,,,0.09,meteohub,2013-04-13 14:50:00,
2013-04-13 10:55:00,45.7,39.6,29.91,NNE,15,0.0,3.0,79,0.00,,,0.09,meteohub,2013-04-13 14:55:00,
2013-04-13 11:01:00,46.0,38.5,29.90,NNE,25,1.0,5.0,75,0.00,,,0.09,meteohub,2013-04-13 15:01:00,
2013-04-13 11:07:00,46.6,38.7,29.91,NE,34,3.0,5.0,74,0.00,,,0.09,meteohub,2013-04-13 15:07:00,
2013-04-13 11:12:00,46.9,40.1,29.91,NW,312,0.0,7.0,77,0.00,,,0.09,meteohub,2013-04-13 15:12:00,
2013-04-13 11:17:00,47.5,38.5,29.90,North,350,0.0,7.0,71,0.00,,,0.09,meteohub,2013-04-13 15:17:00,
2013-04-13 11:22:00,47.8,39.2,29.90,North,355,4.0,7.0,72,0.00,,,0.09,meteohub,2013-04-13 15:22:00,
2013-04-13 11:27:00,47.8,38.5,29.90,North,0,0.0,5.0,70,0.00,,,0.09,meteohub,2013-04-13 15:27:00,
2013-04-13 11:33:00,48.0,39.0,29.90,NNW,334,1.0,5.0,71,0.00,,,0.09,meteohub,2013-04-13 15:33:00,
2013-04-13 11:38:00,47.8,38.1,29.90,NNE,17,2.0,5.0,69,0.00,,,0.09,meteohub,2013-04-13 15:38:00,
2013-04-13 11:43:00,47.7,38.7,29.90,North,355,0.0,5.0,71,0.00,,,0.09,meteohub,2013-04-13 15:43:00,
2013-04-13 11:48:00,47.5,38.8,29.90,NW,309,2.0,5.0,72,0.00,,,0.09,meteohub,2013-04-13 15:48:00,
2013-04-13 11:53:00,47.5,38.5,29.90,North,5,0.0,5.0,71,0.00,,,0.09,meteohub,2013-04-13 15:53:00,
2013-04-13 11:58:00,47.3,37.9,29.90,North,0,3.0,6.0,70,0.00,,,0.09,meteohub,2013-04-13 15:58:00,
2013-04-13 12:03:00,47.1,38.1,29.90,North,5,3.0,6.0,71,0.00,,,0.09,meteohub,2013-04-13 16:03:00,
2013-04-13 12:08:00,47.3,38.3,29.90,North,0,1.0,6.0,71,0.00,,,0.09,meteohub,2013-04-13 16:08:00,
2013-04-13 12:13:00,47.7,38.7,29.90,NNE,19,2.0,5.0,71,0.00,,,0.09,meteohub,2013-04-13 16:13:00,
2013-04-13 12:18:00,47.8,39.2,29.90,NNW,331,0.0,5.0,72,0.00,,,0.09,meteohub,2013-04-13 16:18:00,
2013-04-13 12:23:00,48.6,39.9,29.90,NNE,25,2.0,5.0,72,0.00,,,0.09,meteohub,2013-04-13 16:23:00,
2013-04-13 12:28:00,48.9,39.2,29.90,West,263,1.0,6.0,69,0.00,,,0.09,meteohub,2013-04-13 16:28:00,
2013-04-13 12:36:00,49.8,38.8,29.90,NNW,340,2.0,6.0,66,0.00,,,0.09,meteohub,2013-04-13 16:36:00,
2013-04-13 12:41:00,50.2,37.2,29.89,North,355,0.0,6.0,61,0.00,,,0.09,meteohub,2013-04-13 16:41:00,
2013-04-13 12:46:00,50.5,37.9,29.89,WNW,284,2.0,6.0,62,0.00,,,0.09,meteohub,2013-04-13 16:46:00,
2013-04-13 12:52:00,50.9,37.6,29.89,West,277,0.0,6.0,60,0.00,,,0.09,meteohub,2013-04-13 16:52:00,
2013-04-13 12:57:00,50.9,37.0,29.89,NNW,345,3.0,4.0,59,0.00,,,0.09,meteohub,2013-04-13 16:57:00,
2013-04-13 13:02:00,50.5,37.6,29.89,NW,304,0.0,6.0,61,0.00,,,0.09,meteohub,2013-04-13 17:02:00,
2013-04-13 13:07:00,50.5,37.2,29.89,WNW,297,0.0,6.0,60,0.00,,,0.09,meteohub,2013-04-13 17:07:00,
2013-04-13 13:13:00,50.4,36.5,29.89,WNW,291,0.0,6.0,59,0.00,,,0.09,meteohub,2013-04-13 17:13:00,
2013-04-13 13:19:00,50.2,37.2,29.89,NW,305,0.0,4.0,61,0.00,,,0.09,meteohub,2013-04-13 17:19:00,
2013-04-13 13:24:00,50.2,37.2,29.88,WNW,288,0.0,4.0,61,0.00,,,0.09,meteohub,2013-04-13 17:24:00,
2013-04-13 13:29:00,50.5,37.9,29.88,WNW,288,0.0,6.0,62,0.00,,,0.09,meteohub,2013-04-13 17:29:00,
2013-04-13 13:34:00,51.3,37.8,29.88,NW,315,2.0,6.0,60,0.00,,,0.09,meteohub,2013-04-13 17:34:00,
2013-04-13 13:39:00,51.6,38.1,29.88,WSW,238,0.0,6.0,60,0.00,,,0.09,meteohub,2013-04-13 17:39:00,
2013-04-13 13:44:00,52.0,38.1,29.88,NE,40,7.0,7.0,59,0.00,,,0.09,meteohub,2013-04-13 17:44:00,
2013-04-13 13:49:00,51.4,37.2,29.88,NW,315,0.0,10.0,58,0.00,,,0.09,meteohub,2013-04-13 17:49:00,
2013-04-13 13:54:00,51.4,36.7,29.88,NE,39,3.0,10.0,57,0.00,,,0.09,meteohub,2013-04-13 17:54:00,
2013-04-13 13:59:00,51.4,37.6,29.88,North,0,1.0,10.0,59,0.00,,,0.09,meteohub,2013-04-13 17:59:00,
2013-04-13 14:04:00,51.6,36.9,29.88,North,350,0.0,5.0,57,0.00,,,0.09,meteohub,2013-04-13 18:04:00,
2013-04-13 14:09:00,52.2,37.4,29.87,NNW,335,0.0,6.0,57,0.00,,,0.09,meteohub,2013-04-13 18:09:00,
2013-04-13 14:14:00,52.2,37.8,29.87,North,355,3.0,9.0,58,0.00,,,0.09,meteohub,2013-04-13 18:14:00,
2013-04-13 14:20:00,52.2,37.4,29.87,NNW,341,2.0,9.0,57,0.00,,,0.09,meteohub,2013-04-13 18:20:00,
2013-04-13 14:25:00,52.3,37.0,29.87,NE,37,3.0,9.0,56,0.00,,,0.09,meteohub,2013-04-13 18:25:00,
2013-04-13 14:27:00,52.3,37.6,29.87,WNW,288,0.0,7.0,57,0.00,,,0.09,meteohub,2013-04-13 18:27:00,
2013-04-13 14:32:00,52.2,36.5,29.87,NNW,333,1.0,8.0,55,0.00,,,0.09,meteohub,2013-04-13 18:32:00,
2013-04-13 14:37:00,52.0,36.3,29.87,North,5,0.0,8.0,55,0.00,,,0.09,meteohub,2013-04-13 18:37:00,
2013-04-13 14:42:00,52.2,36.0,29.87,ENE,68,1.0,8.0,54,0.00,,,0.09,meteohub,2013-04-13 18:42:00,
2013-04-13 14:47:00,52.3,37.6,29.87,NW,319,2.0,7.0,57,0.00,,,0.09,meteohub,2013-04-13 18:47:00,
2013-04-13 14:52:00,52.5,36.9,29.87,NW,319,0.0,8.0,55,0.00,,,0.09,meteohub,2013-04-13 18:52:00,
2013-04-13 14:57:00,52.9,37.6,29.87,North,355,0.0,8.0,56,0.00,,,0.09,meteohub,2013-04-13 18:57:00,
2013-04-13 15:02:00,53.2,37.4,29.86,NNW,336,0.0,8.0,55,0.00,,,0.09,meteohub,2013-04-13 19:02:00,
2013-04-13 15:07:00,53.8,37.0,29.86,NNE,28,2.0,2.0,53,0.00,,,0.09,meteohub,2013-04-13 19:07:00,
2013-04-13 15:12:00,53.6,37.4,29.86,WSW,248,3.0,4.0,54,0.00,,,0.09,meteohub,2013-04-13 19:12:00,
2013-04-13 15:17:00,53.8,36.5,29.86,NNE,12,3.0,7.0,52,0.00,,,0.09,meteohub,2013-04-13 19:17:00,
2013-04-13 15:22:00,54.3,37.6,29.86,NW,304,1.0,7.0,53,0.00,,,0.09,meteohub,2013-04-13 19:22:00,
2013-04-13 15:27:00,55.0,37.8,29.86,NW,323,0.0,6.0,52,0.00,,,0.09,meteohub,2013-04-13 19:27:00,
2013-04-13 15:32:00,55.6,37.8,29.86,West,275,0.0,6.0,51,0.00,,,0.09,meteohub,2013-04-13 19:32:00,
2013-04-13 15:38:00,56.1,37.8,29.86,NNE,23,0.0,6.0,50,0.00,,,0.09,meteohub,2013-04-13 19:38:00,
2013-04-13 15:43:00,55.8,36.9,29.87,NNW,331,1.0,6.0,49,0.00,,,0.09,meteohub,2013-04-13 19:43:00,
2013-04-13 15:48:00,54.9,37.6,29.87,NNW,333,0.0,10.0,52,0.00,,,0.09,meteohub,2013-04-13 19:48:00,
2013-04-13 15:53:00,54.9,37.0,29.87,West,260,0.0,10.0,51,0.00,,,0.09,meteohub,2013-04-13 19:53:00,
2013-04-13 15:58:00,54.7,37.4,29.86,West,276,0.0,10.0,52,0.00,,,0.09,meteohub,2013-04-13 19:58:00,
2013-04-13 16:03:00,54.7,37.9,29.87,West,267,0.0,8.0,53,0.00,,,0.09,meteohub,2013-04-13 20:03:00,
2013-04-13 16:08:00,54.7,37.9,29.87,NNW,343,0.0,8.0,53,0.00,,,0.09,meteohub,2013-04-13 20:08:00,
2013-04-13 16:13:00,54.7,37.4,29.87,NNW,333,0.0,5.0,52,0.00,,,0.09,meteohub,2013-04-13 20:13:00,
2013-04-13 16:18:00,54.7,36.9,29.87,SSW,212,0.0,3.0,51,0.00,,,0.09,meteohub,2013-04-13 20:18:00,
2013-04-13 16:23:00,54.7,36.3,29.87,SW,225,0.0,4.0,50,0.00,,,0.09,meteohub,2013-04-13 20:23:00,
2013-04-13 16:28:00,54.3,36.5,29.88,West,269,2.0,4.0,51,0.00,,,0.09,meteohub,2013-04-13 20:28:00,
2013-04-13 16:33:00,54.1,36.3,29.88,WNW,298,0.0,4.0,51,0.00,,,0.09,meteohub,2013-04-13 20:33:00,
2013-04-13 16:38:00,54.0,36.3,29.88,SW,236,0.0,6.0,51,0.00,,,0.09,meteohub,2013-04-13 20:38:00,
2013-04-13 16:43:00,54.0,36.7,29.88,West,266,1.0,6.0,52,0.00,,,0.09,meteohub,2013-04-13 20:43:00,
2013-04-13 16:48:00,53.8,36.1,29.88,SW,228,0.0,6.0,51,0.00,,,0.09,meteohub,2013-04-13 20:48:00,
2013-04-13 16:53:00,53.8,36.5,29.88,SW,228,0.0,4.0,52,0.00,,,0.09,meteohub,2013-04-13 20:53:00,
2013-04-13 16:59:00,54.0,36.7,29.88,SW,231,0.0,4.0,52,0.00,,,0.09,meteohub,2013-04-13 20:59:00,
2013-04-13 17:04:00,54.0,36.7,29.87,SW,231,0.0,4.0,52,0.00,,,0.09,meteohub,2013-04-13 21:04:00,
2013-04-13 17:09:00,54.0,37.2,29.88,SW,232,2.0,2.0,53,0.00,,,0.09,meteohub,2013-04-13 21:09:00,
2013-04-13 17:14:00,53.8,36.1,29.88,SW,226,0.0,2.0,51,0.00,,,0.09,meteohub,2013-04-13 21:14:00,
2013-04-13 17:19:00,53.6,36.3,29.88,SW,226,1.0,6.0,52,0.00,,,0.09,meteohub,2013-04-13 21:19:00,
2013-04-13 17:24:00,53.4,36.3,29.88,SW,234,0.0,6.0,52,0.00,,,0.09,meteohub,2013-04-13 21:24:00,
2013-04-13 17:29:00,53.4,36.7,29.88,SW,234,1.0,4.0,53,0.00,,,0.09,meteohub,2013-04-13 21:29:00,
2013-04-13 17:34:00,53.4,36.7,29.88,SW,234,0.0,4.0,53,0.00,,,0.09,meteohub,2013-04-13 21:34:00,
2013-04-13 17:39:00,53.4,36.7,29.88,SW,234,0.0,4.0,53,0.00,,,0.09,meteohub,2013-04-13 21:39:00,
2013-04-13 17:44:00,53.4,36.3,29.88,SW,234,1.0,3.0,52,0.00,,,0.09,meteohub,2013-04-13 21:44:00,
2013-04-13 17:49:00,53.4,37.2,29.88,SW,235,0.0,3.0,54,0.00,,,0.09,meteohub,2013-04-13 21:49:00,
2013-04-13 17:54:00,53.4,36.7,29.89,SW,236,0.0,3.0,53,0.00,,,0.09,meteohub,2013-04-13 21:54:00,
2013-04-13 17:59:00,53.4,36.7,29.89,SW,236,0.0,3.0,53,0.00,,,0.09,meteohub,2013-04-13 21:59:00,
2013-04-13 18:04:00,53.4,37.6,29.89,SW,236,0.0,3.0,55,0.00,,,0.09,meteohub,2013-04-13 22:04:00,
2013-04-13 18:09:00,53.4,36.7,29.90,SW,236,0.0,3.0,53,0.00,,,0.09,meteohub,2013-04-13 22:09:00,
2013-04-13 18:14:00,53.2,37.0,29.89,SW,236,0.0,2.0,54,0.00,,,0.09,meteohub,2013-04-13 22:14:00,
2013-04-13 18:19:00,53.2,36.5,29.89,SW,236,0.0,2.0,53,0.00,,,0.09,meteohub,2013-04-13 22:19:00,
2013-04-13 18:24:00,53.2,37.0,29.89,SW,236,0.0,2.0,54,0.00,,,0.09,meteohub,2013-04-13 22:24:00,
2013-04-13 18:29:00,53.2,37.9,29.89,SW,236,0.0,0.0,56,0.00,,,0.09,meteohub,2013-04-13 22:29:00,
2013-04-13 18:34:00,53.1,36.9,29.88,SW,236,0.0,0.0,54,0.00,,,0.09,meteohub,2013-04-13 22:34:00,
2013-04-13 18:39:00,53.1,36.3,29.88,SW,236,0.0,0.0,53,0.00,,,0.09,meteohub,2013-04-13 22:39:00,
2013-04-13 18:44:00,53.1,36.9,29.88,SW,236,0.0,0.0,54,0.00,,,0.09,meteohub,2013-04-13 22:44:00,
2013-04-13 18:49:00,53.1,37.4,29.88,SW,236,0.0,0.0,55,0.00,,,0.09,meteohub,2013-04-13 22:49:00,
2013-04-13 18:54:00,52.9,37.6,29.88,SW,236,0.0,0.0,56,0.00,,,0.09,meteohub,2013-04-13 22:54:00,
2013-04-13 18:59:00,52.9,37.2,29.89,WSW,237,0.0,0.0,55,0.00,,,0.09,meteohub,2013-04-13 22:59:00,
2013-04-13 19:04:00,52.7,38.3,29.90,WSW,237,0.0,1.0,58,0.00,,,0.09,meteohub,2013-04-13 23:04:00,
2013-04-13 19:09:00,52.5,37.8,29.91,WSW,237,0.0,1.0,57,0.00,,,0.09,meteohub,2013-04-13 23:09:00,
2013-04-13 19:14:00,52.3,37.6,29.91,WSW,237,0.0,1.0,57,0.00,,,0.09,meteohub,2013-04-13 23:14:00,
2013-04-13 19:19:00,52.3,37.6,29.91,WSW,237,0.0,1.0,57,0.00,,,0.09,meteohub,2013-04-13 23:19:00,
2013-04-13 19:24:00,52.2,37.8,29.91,WSW,237,0.0,2.0,58,0.00,,,0.09,meteohub,2013-04-13 23:24:00,
2013-04-13 19:29:00,52.2,38.3,29.91,WSW,237,0.0,2.0,59,0.00,,,0.09,meteohub,2013-04-13 23:29:00,
2013-04-13 19:34:00,52.0,37.6,29.91,WSW,237,0.0,2.0,58,0.00,,,0.09,meteohub,2013-04-13 23:34:00,
2013-04-13 19:39:00,51.6,37.4,29.91,WSW,237,0.0,0.0,58,0.00,,,0.09,meteohub,2013-04-13 23:39:00,
2013-04-13 19:44:00,51.6,37.8,29.91,WSW,237,0.0,0.0,59,0.00,,,0.09,meteohub,2013-04-13 23:44:00,
2013-04-13 19:49:00,51.4,37.6,29.91,WSW,237,0.0,1.0,59,0.00,,,0.09,meteohub,2013-04-13 23:49:00,
2013-04-13 19:54:00,51.3,37.8,29.91,SSE,153,0.0,1.0,60,0.00,,,0.09,meteohub,2013-04-13 23:54:00,
2013-04-13 19:59:00,51.3,38.3,29.91,SSE,153,0.0,3.0,61,0.00,,,0.09,meteohub,2013-04-13 23:59:00,
2013-04-13 20:05:00,51.1,38.5,29.91,SSE,154,0.0,3.0,62,0.00,,,0.09,meteohub,2013-04-14 00:05:00,
2013-04-13 20:10:00,50.9,38.3,29.92,SSE,154,0.0,2.0,62,0.00,,,0.09,meteohub,2013-04-14 00:10:00,
2013-04-13 20:15:00,50.7,38.1,29.92,SSE,154,0.0,2.0,62,0.00,,,0.09,meteohub,2013-04-14 00:15:00,
2013-04-13 20:20:00,50.7,38.1,29.92,SW,233,0.0,2.0,62,0.00,,,0.09,meteohub,2013-04-14 00:20:00,
2013-04-13 20:25:00,50.5,38.8,29.92,SW,233,0.0,1.0,64,0.00,,,0.09,meteohub,2013-04-14 00:25:00,
2013-04-13 20:30:00,50.5,38.5,29.93,SSE,166,0.0,1.0,63,0.00,,,0.09,meteohub,2013-04-14 00:30:00,
2013-04-13 20:35:00,50.4,38.7,29.93,SSE,166,0.0,1.0,64,0.00,,,0.09,meteohub,2013-04-14 00:35:00,
2013-04-13 20:40:00,50.4,38.7,29.93,SSE,166,0.0,2.0,64,0.00,,,0.09,meteohub,2013-04-14 00:40:00,
2013-04-13 20:45:00,50.2,38.5,29.93,SSE,166,0.0,2.0,64,0.00,,,0.09,meteohub,2013-04-14 00:45:00,
2013-04-13 20:50:00,50.2,39.2,29.93,SSE,166,0.0,1.0,66,0.00,,,0.09,meteohub,2013-04-14 00:50:00,
2013-04-13 20:55:00,50.0,39.0,29.93,SSE,166,0.0,1.0,66,0.00,,,0.09,meteohub,2013-04-14 00:55:00,
2013-04-13 21:00:00,49.8,38.5,29.93,SSE,166,0.0,0.0,65,0.00,,,0.09,meteohub,2013-04-14 01:00:00,
2013-04-13 21:05:00,49.8,38.8,29.94,SSE,166,0.0,0.0,66,0.00,,,0.09,meteohub,2013-04-14 01:05:00,
2013-04-13 21:10:00,49.6,38.7,29.94,SSE,166,0.0,0.0,66,0.00,,,0.09,meteohub,2013-04-14 01:10:00,
2013-04-13 21:15:00,49.6,39.2,29.94,SSE,166,0.0,0.0,67,0.00,,,0.09,meteohub,2013-04-14 01:15:00,
2013-04-13 21:20:00,49.6,38.7,29.94,SSE,166,0.0,0.0,66,0.00,,,0.09,meteohub,2013-04-14 01:20:00,
2013-04-13 21:25:00,49.6,38.7,29.94,SSE,166,0.0,0.0,66,0.00,,,0.09,meteohub,2013-04-14 01:25:00,
2013-04-13 21:30:00,49.5,39.0,29.95,SSE,166,0.0,0.0,67,0.00,,,0.09,meteohub,2013-04-14 01:30:00,
2013-04-13 21:35:00,49.5,38.7,29.95,SSE,166,0.0,1.0,66,0.00,,,0.09,meteohub,2013-04-14 01:35:00,
2013-04-13 21:40:00,49.3,39.2,29.95,SSE,166,0.0,1.0,68,0.00,,,0.09,meteohub,2013-04-14 01:40:00,
2013-04-13 21:45:00,49.3,39.2,29.95,SSE,166,0.0,1.0,68,0.00,,,0.09,meteohub,2013-04-14 01:45:00,
2013-04-13 21:50:00,48.9,38.8,29.95,SSE,166,0.0,1.0,68,0.00,,,0.09,meteohub,2013-04-14 01:50:00,
2013-04-13 21:55:00,48.7,38.7,29.95,SSE,166,0.0,1.0,68,0.00,,,0.09,meteohub,2013-04-14 01:55:00,
2013-04-13 22:00:00,48.4,38.7,29.96,SSE,166,0.0,1.0,69,0.00,,,0.09,meteohub,2013-04-14 02:00:00,
2013-04-13 22:05:00,48.0,38.3,29.96,SSE,166,0.0,1.0,69,0.00,,,0.09,meteohub,2013-04-14 02:05:00,
2013-04-13 22:06:00,48.0,38.3,29.96,SSE,166,0.0,1.0,69,0.00,,,0.09,meteohub,2013-04-14 02:06:00,
2013-04-13 22:12:00,47.7,37.9,29.96,SSE,166,0.0,2.0,69,0.00,,,0.09,meteohub,2013-04-14 02:12:00,
2013-04-13 22:17:00,47.5,37.8,29.96,SSW,193,1.0,2.0,69,0.00,,,0.09,meteohub,2013-04-14 02:17:00,
2013-04-13 22:22:00,47.5,37.8,29.96,SSW,194,0.0,2.0,69,0.00,,,0.09,meteohub,2013-04-14 02:22:00,
2013-04-13 22:27:00,47.5,37.4,29.96,WSW,243,0.0,2.0,68,0.00,,,0.09,meteohub,2013-04-14 02:27:00,
2013-04-13 22:32:00,47.5,37.4,29.96,WSW,243,1.0,3.0,68,0.00,,,0.09,meteohub,2013-04-14 02:32:00,
2013-04-13 22:37:00,47.5,37.4,29.96,WSW,243,0.0,3.0,68,0.00,,,0.09,meteohub,2013-04-14 02:37:00,
2013-04-13 22:42:00,47.5,37.0,29.95,WSW,243,0.0,3.0,67,0.00,,,0.09,meteohub,2013-04-14 02:42:00,
2013-04-13 22:47:00,47.7,36.9,29.95,WSW,243,1.0,2.0,66,0.00,,,0.09,meteohub,2013-04-14 02:47:00,
2013-04-13 22:52:00,47.7,36.9,29.95,WSW,243,0.0,2.0,66,0.00,,,0.09,meteohub,2013-04-14 02:52:00,
2013-04-13 22:57:00,47.5,36.7,29.95,WSW,243,0.0,2.0,66,0.00,,,0.09,meteohub,2013-04-14 02:57:00,
2013-04-13 23:02:00,47.5,37.0,29.95,SSW,213,0.0,2.0,67,0.00,,,0.09,meteohub,2013-04-14 03:02:00,
2013-04-13 23:07:00,47.1,37.0,29.96,SSW,213,0.0,2.0,68,0.00,,,0.09,meteohub,2013-04-14 03:07:00,
2013-04-13 23:12:00,46.6,36.5,29.96,SSW,213,0.0,2.0,68,0.00,,,0.09,meteohub,2013-04-14 03:12:00,
2013-04-13 23:17:00,46.2,36.7,29.96,SSW,213,0.0,0.0,69,0.00,,,0.09,meteohub,2013-04-14 03:17:00,
2013-04-13 23:22:00,46.0,36.5,29.96,SSW,213,0.0,1.0,69,0.00,,,0.09,meteohub,2013-04-14 03:22:00,
2013-04-13 23:27:00,45.9,36.3,29.96,SSW,213,0.0,2.0,69,0.00,,,0.09,meteohub,2013-04-14 03:27:00,
2013-04-13 23:32:00,45.7,36.9,29.96,SSW,213,0.0,2.0,71,0.00,,,0.09,meteohub,2013-04-14 03:32:00,
2013-04-13 23:37:00,45.0,36.5,29.96,SSW,213,0.0,2.0,72,0.00,,,0.09,meteohub,2013-04-14 03:37:00,
2013-04-13 23:42:00,44.2,36.1,29.96,SSW,213,0.0,1.0,73,0.00,,,0.09,meteohub,2013-04-14 03:42:00,
2013-04-13 23:47:00,43.9,36.1,29.96,SSW,213,0.0,3.0,74,0.00,,,0.09,meteohub,2013-04-14 03:47:00,
2013-04-13 23:52:00,43.3,36.3,29.96,SSW,213,1.0,3.0,76,0.00,,,0.09,meteohub,2013-04-14 03:52:00,
2013-04-13 23:57:00,43.0,36.0,29.96,SSW,213,0.0,3.0,76,0.00,,,0.09,meteohub,2013-04-14 03:57:00,